Latest Weather Observations for Perth Airport

IDW60901

Issued at 9:45 pm WST Friday 25 July 2014 (issued every 10 minutes, with the page automatically refreshed every 10 minutes)

About weather observations | Map of Perth area stations | Latest observations for Perth area | Other Formats
Station Details ID: 009021 Name: PERTH AIRPORT Lat: -31.93 Lon: 115.98 Height: 15.4 m
Data from the previous 72 hours. | See also: Recent months at Perth Airport
Date/Time
WST
Tmp

°C
App
Tmp
°C
Dew
Point
°C
Rel
Hum
%
Delta-T

°C
Wind Press
QNH
hPa
Press
MSL
hPa
Rain
since
9 am
mm
Dir
 
Spd
km/h
Gust
km/h
Spd
kts
Gust
kts
25/09:30pm 14.4 10.6 11.0 80 1.8 N 22 26 12 14 1018.0 - 0.4
25/09:20pm 15.1 10.0 10.5 74 2.4 NNW 28 37 15 20 1018.3 - 0.4
25/09:00pm 15.6 13.4 10.9 73 2.5 N 13 15 7 8 1018.1 1018.1 0.4
25/08:30pm 16.1 13.8 10.4 69 3.0 N 13 19 7 10 1018.1 - 0.4
25/08:00pm 16.5 13.7 11.3 71 2.8 N 17 26 9 14 1017.9 - 0.4
25/07:30pm 17.2 12.0 8.9 58 4.3 NW 26 37 14 20 1018.0 - 0.4
25/07:00pm 17.0 13.4 10.6 66 3.4 NNW 20 30 11 16 1017.6 - 0.4
25/06:30pm 16.6 13.7 12.2 75 2.4 NNW 19 26 10 14 1017.6 - 0.4
25/06:00pm 16.7 13.1 11.7 72 2.7 NW 22 32 12 17 1017.5 1017.5 0.4
25/05:30pm 17.2 13.1 10.0 62 3.8 NNW 22 32 12 17 1017.7 - 0.4
25/05:00pm 17.0 12.2 10.2 64 3.6 NNW 26 35 14 19 1017.8 - 0.4
25/04:30pm 16.0 11.7 13.1 83 1.6 NW 28 43 15 23 1018.3 - 0.4
25/04:19pm 16.2 11.3 12.6 79 2.0 NNW 30 43 16 23 1018.5 - 0.4
25/04:15pm 17.5 13.2 10.6 64 3.7 NNW 24 32 13 17 1018.4 - 0.2
25/04:14pm 17.6 13.2 10.5 63 3.8 NNW 24 32 13 17 1018.3 - 0.2
25/04:00pm 17.8 13.8 10.3 61 4.0 NNW 22 32 12 17 1018.1 - 0.2
25/03:47pm 18.1 12.6 10.4 60 4.1 NNW 30 48 16 26 1018.2 - 0.2
25/03:30pm 17.9 11.9 10.8 63 3.8 NW 33 44 18 24 1018.3 - 0.2
25/03:00pm 17.5 13.2 12.0 70 3.0 WNW 26 33 14 18 1018.3 1018.3 0.2
25/02:30pm 18.2 12.3 10.3 60 4.2 NW 32 43 17 23 1018.2 - 0.2
25/02:15pm 18.2 12.9 9.9 58 4.4 NNW 28 48 15 26 1018.1 - 0.2
25/02:00pm 17.9 12.9 10.8 63 3.8 NNW 28 39 15 21 1018.3 - 0.2
25/01:30pm 16.9 14.1 14.3 85 1.5 NW 22 33 12 18 1018.6 - 0.2
25/01:24pm 16.3 12.6 13.8 85 1.4 NW 26 39 14 21 1018.6 - 0.2
25/01:07pm 17.3 12.5 12.8 75 2.5 NW 30 41 16 22 1018.6 - 0.0
25/01:03pm 18.4 14.6 12.3 67 3.4 NNW 24 39 13 21 1018.5 - 0.0
25/01:00pm 18.6 14.7 12.1 66 3.6 NNW 24 33 13 18 1018.4 - 0.0
25/12:30pm 18.3 14.1 12.5 69 3.2 NNW 26 39 14 21 1019.1 - 0.0
25/12:00pm 18.9 14.1 11.6 62 4.0 NNW 28 37 15 20 1019.6 1019.6 0.0
25/11:30am 18.2 15.0 13.0 71 2.9 NNW 22 37 12 20 1020.2 - 0.0
25/11:00am 17.3 13.7 13.0 76 2.4 N 24 33 13 18 1020.4 - 0.0
25/10:30am 16.5 13.6 12.9 79 2.0 N 20 26 11 14 1020.6 - 0.0
25/10:00am 15.4 12.4 12.7 84 1.5 N 20 28 11 15 1020.7 - 0.0
25/09:30am 14.5 11.2 12.7 89 1.0 N 22 28 12 15 1020.7 - 0.0
25/09:00am 13.9 10.5 12.6 92 0.7 N 22 28 12 15 1020.5 1020.5 1.2
25/08:30am 13.5 10.6 12.8 95 0.4 N 20 28 11 15 1020.4 - 1.2
25/08:00am 13.0 10.9 12.4 96 0.3 NNE 15 19 8 10 1020.4 - 1.2
25/07:30am 12.8 11.0 12.2 96 0.3 N 13 17 7 9 1020.5 - 1.2
25/07:17am 12.8 11.5 12.4 97 0.2 NNE 11 17 6 9 1020.4 - 1.2
25/07:00am 12.8 11.5 12.4 97 0.2 N 11 13 6 7 1020.5 - 1.0
25/06:41am 12.8 11.5 12.4 97 0.2 NW 11 13 6 7 1020.5 - 1.0
25/06:30am 12.9 11.2 12.3 96 0.3 NNW 13 17 7 9 1020.4 - 1.0
25/06:00am 12.4 10.6 12.0 97 0.2 NNE 13 17 7 9 1019.8 1019.8 1.0
25/05:30am 12.2 10.6 11.6 96 0.3 NE 11 15 6 8 1019.7 - 0.8
25/05:00am 12.3 10.4 11.7 96 0.3 NNE 13 15 7 8 1019.8 - 0.8
25/04:44am 12.2 10.3 11.8 97 0.2 NNE 13 15 7 8 1020.0 - 0.8
25/04:30am 12.3 10.4 11.7 96 0.3 N 13 17 7 9 1020.2 - 0.8
25/04:19am 12.1 10.9 11.7 97 0.2 N 9 13 5 7 1020.4 - 0.8
25/04:00am 11.7 10.0 11.1 96 0.3 NNW 11 17 6 9 1020.6 - 0.4
25/03:57am 11.7 10.0 11.1 96 0.3 NNW 11 15 6 8 1020.6 - 0.4
25/03:30am 11.4 9.6 10.8 96 0.3 NNE 11 13 6 7 1020.3 - 0.0
25/03:00am 11.2 9.4 10.8 97 0.2 N 11 13 6 7 1020.2 1020.2 0.2
25/02:30am 11.1 9.3 10.7 97 0.2 N 11 11 6 6 1020.3 - 0.2
25/02:00am 11.1 9.2 10.5 96 0.3 N 11 13 6 7 1020.6 - 0.2
25/01:30am 11.6 10.2 11.0 96 0.3 N 9 15 5 8 1020.8 - 0.2
25/01:00am 12.0 10.7 11.4 96 0.3 N 9 9 5 5 1020.9 - 0.0
25/12:30am 12.6 11.8 11.7 94 0.5 NE 7 9 4 5 1021.0 - 0.0
25/12:00am 12.5 11.3 11.7 95 0.4 NNE 9 9 5 5 1021.2 1021.2 0.2
 
Date/Time
WST
Tmp

°C
App
Tmp
°C
Dew
Point
°C
Rel
Hum
%
Delta-T

°C
Wind Press
QNH
hPa
Press
MSL
hPa
Rain
since
9 am
mm
Dir
 
Spd
km/h
Gust
km/h
Spd
kts
Gust
kts
24/11:30pm 12.5 11.3 11.7 95 0.4 NE 9 11 5 6 1021.3 - 0.2
24/11:00pm 12.5 11.3 11.7 95 0.4 N 9 11 5 6 1021.7 - 0.2
24/10:30pm 12.4 11.2 11.6 95 0.4 NNE 9 9 5 5 1021.6 - 0.2
24/10:00pm 12.5 11.7 11.6 94 0.5 NNE 7 9 4 5 1021.4 - 0.2
24/09:30pm 12.9 11.4 12.0 94 0.5 NNE 11 13 6 7 1021.5 - 0.2
24/09:00pm 13.0 11.2 12.1 94 0.5 NNE 13 15 7 8 1021.6 1021.6 0.2
24/08:30pm 12.5 10.8 11.2 92 0.7 N 11 17 6 9 1021.9 - 0.0
24/08:00pm 11.4 9.5 10.4 94 0.5 NE 11 13 6 7 1021.6 - 0.0
24/07:30pm 11.1 9.8 9.9 92 0.6 NNW 7 9 4 5 1021.7 - 0.0
24/07:00pm 12.2 10.7 10.5 89 0.9 NW 9 11 5 6 1021.6 - 0.2
24/06:30pm 13.6 12.6 10.9 84 1.4 WNW 7 9 4 5 1021.5 - 0.0
24/06:00pm 14.8 13.4 10.8 77 2.1 WSW 9 11 5 6 1021.2 1021.2 0.2
24/05:30pm 16.2 14.4 10.7 70 2.9 WSW 11 15 6 8 1021.1 - 0.2
24/05:00pm 17.0 14.7 10.6 66 3.4 W 13 17 7 9 1020.8 - 0.2
24/04:30pm 17.8 15.9 10.5 62 3.9 W 11 15 6 8 1020.7 - 0.2
24/04:00pm 18.0 15.9 9.6 58 4.4 W 11 13 6 7 1020.6 - 0.2
24/03:30pm 17.6 15.2 10.0 61 4.0 W 13 20 7 11 1020.8 - 0.2
24/03:00pm 17.8 14.3 8.9 56 4.6 SW 17 22 9 12 1020.6 1020.6 0.2
24/02:30pm 18.4 15.7 9.0 54 4.9 WSW 13 20 7 11 1020.7 - 0.2
24/02:00pm 18.8 15.0 9.0 53 5.1 WSW 19 28 10 15 1020.7 - 0.2
24/01:30pm 18.8 16.3 9.7 55 4.8 SSW 13 19 7 10 1021.0 - 0.2
24/01:00pm 18.1 14.8 9.5 57 4.5 SSW 17 22 9 12 1021.2 - 0.2
24/12:30pm 18.2 15.2 9.4 56 4.6 SW 15 24 8 13 1021.5 - 0.2
24/12:00pm 17.9 15.0 9.5 58 4.4 S 15 20 8 11 1021.8 1021.8 0.0
24/11:30am 17.5 15.0 9.7 60 4.1 S 13 20 7 11 1022.0 - 0.0
24/11:00am 17.0 14.6 10.0 63 3.7 S 13 17 7 9 1022.2 - 0.0
24/10:30am 16.3 13.6 10.2 67 3.2 S 15 19 8 10 1022.5 - 0.0
24/10:00am 15.6 13.6 11.5 76 2.2 SSE 13 20 7 11 1022.4 - 0.0
24/09:30am 14.2 13.0 11.6 84 1.4 SE 9 11 5 6 1022.3 - 0.0
24/09:00am 13.3 13.7 12.6 95 0.4 NE 2 6 1 3 1022.1 1022.1 2.8
24/08:30am 11.7 11.7 11.3 97 0.2 ENE 2 7 1 4 1021.8 - 2.8
24/08:21am 11.4 10.6 11.0 97 0.2 ENE 6 7 3 4 1021.6 - 2.8
24/08:00am 10.3 8.6 9.9 97 0.2 NE 9 9 5 5 1021.4 - 2.8
24/07:45am 9.5 8.2 9.3 99 0.1 ENE 6 7 3 4 1021.4 - 2.8
24/07:30am 9.4 9.2 9.2 99 0.1 CALM 0 - 0 - 1021.1 - 2.8
24/07:00am 10.0 10.1 10.0 100 0.0 CALM 0 - 0 - 1021.0 - 2.8
24/06:54am 10.3 10.4 10.1 99 0.1 CALM 0 - 0 - 1021.0 - 2.8
24/06:44am 10.6 10.7 10.2 97 0.2 CALM 0 6 0 3 1020.9 - 2.8
24/06:30am 10.7 9.5 10.3 97 0.2 ENE 7 9 4 5 1020.6 - 2.8
24/06:00am 11.1 10.1 10.9 99 0.1 ENE 7 9 4 5 1020.4 1020.4 2.8
24/05:43am 11.3 10.3 10.9 97 0.2 E 7 9 4 5 1020.2 - 2.8
24/05:30am 11.3 10.3 10.9 97 0.2 ENE 7 9 4 5 1020.3 - 2.6
24/04:58am 11.3 9.9 10.9 97 0.2 ESE 9 13 5 7 1020.1 - 2.4
24/04:49am 11.2 7.6 10.6 96 0.3 SSE 20 26 11 14 1020.0 - 1.4
24/04:45am 10.9 9.4 10.5 97 0.2 N 9 13 5 7 1019.6 - 1.2
24/04:30am 10.7 9.1 10.3 97 0.2 NNE 9 9 5 5 1019.6 - 1.2
24/04:00am 10.4 8.8 10.2 99 0.1 NNE 9 11 5 6 1019.7 - 1.2
24/03:42am 10.6 8.6 10.2 97 0.2 NNE 11 15 6 8 1019.8 - 1.2
24/03:30am 10.4 8.4 10.0 97 0.2 N 11 19 6 10 1020.1 - 1.0
24/03:24am 10.1 8.0 9.7 97 0.2 N 11 17 6 9 1020.0 - 1.0
24/03:17am 10.0 8.6 9.6 97 0.2 NNE 7 9 4 5 1020.2 - 0.6
24/03:00am 10.1 8.4 9.9 99 0.1 NNE 9 11 5 6 1020.3 1020.3 0.6
24/02:30am 10.1 8.4 9.7 97 0.2 NE 9 11 5 6 1020.3 - 0.6
24/02:07am 10.5 9.3 10.3 99 0.1 ENE 7 11 4 6 1020.4 - 0.6
24/01:58am 10.6 9.5 10.0 96 0.3 E 6 11 3 6 1020.8 - 0.4
24/01:30am 9.8 8.0 9.4 97 0.2 NNE 9 13 5 7 1020.2 - 0.4
24/01:00am 9.9 8.1 9.3 96 0.3 NNE 9 11 5 6 1020.2 - 0.4
24/12:30am 10.0 8.2 9.6 97 0.2 NNE 9 11 5 6 1020.4 - 0.4
24/12:00am 10.1 8.4 9.7 97 0.2 NNE 9 13 5 7 1020.7 1020.7 0.4
 
Date/Time
WST
Tmp

°C
App
Tmp
°C
Dew
Point
°C
Rel
Hum
%
Delta-T

°C
Wind Press
QNH
hPa
Press
MSL
hPa
Rain
since
9 am
mm
Dir
 
Spd
km/h
Gust
km/h
Spd
kts
Gust
kts
23/11:30pm 10.0 8.2 9.6 97 0.2 N 9 11 5 6 1021.0 - 0.4
23/11:00pm 10.2 8.5 10.0 99 0.1 NNE 9 11 5 6 1021.1 - 0.4
23/10:30pm 10.4 8.7 10.0 97 0.2 N 9 11 5 6 1021.3 - 0.4
23/10:00pm 10.6 9.0 10.2 97 0.2 NNE 9 13 5 7 1021.2 - 0.4
23/09:30pm 10.2 8.9 9.8 97 0.2 NNE 7 13 4 7 1021.4 - 0.4
23/09:00pm 10.1 8.3 9.5 96 0.3 NNE 9 11 5 6 1021.3 1021.3 0.4
23/08:30pm 10.3 8.6 9.9 97 0.2 NNE 9 13 5 7 1021.4 - 0.4
23/08:00pm 10.1 8.4 9.7 97 0.2 N 9 13 5 7 1021.4 - 0.4
23/07:30pm 9.3 7.2 8.3 93 0.5 N 9 11 5 6 1021.2 - 0.4
23/07:00pm 9.7 8.1 8.9 95 0.4 NW 7 15 4 8 1021.1 - 0.4
23/06:30pm 10.8 9.4 9.6 92 0.6 WNW 7 9 4 5 1020.9 - 0.4
23/06:00pm 12.5 10.7 9.5 82 1.5 W 9 11 5 6 1020.6 1020.6 0.4
23/05:30pm 13.7 11.6 9.6 76 2.1 W 11 17 6 9 1020.7 - 0.4
23/05:00pm 14.5 11.9 9.4 71 2.6 W 13 19 7 10 1020.7 - 0.4
23/04:30pm 15.2 11.9 9.6 69 2.9 WNW 17 22 9 12 1020.5 - 0.4
23/04:00pm 14.9 12.3 9.2 68 2.9 W 13 19 7 10 1020.3 - 0.4
23/03:30pm 15.1 12.9 10.7 75 2.3 W 13 20 7 11 1020.5 - 0.4
23/03:00pm 14.6 11.4 9.8 73 2.5 W 17 24 9 13 1020.4 1020.4 0.4
23/02:30pm 15.2 11.5 9.4 68 3.0 NW 19 22 10 12 1020.5 - 0.4
23/02:00pm 14.7 13.4 9.9 73 2.5 NE 7 11 4 6 1020.5 - 0.4
23/01:30pm 14.2 11.7 9.7 74 2.3 NNE 13 17 7 9 1020.8 - 0.4
23/01:00pm 14.3 11.4 9.6 73 2.4 N 15 22 8 12 1021.2 - 0.4
23/12:30pm 14.0 11.5 9.7 75 2.2 N 13 19 7 10 1021.6 - 0.4
23/12:00pm 13.6 10.6 9.3 75 2.2 NNE 15 20 8 11 1022.1 1022.1 0.4
23/11:30am 13.1 10.7 8.5 73 2.3 NE 11 15 6 8 1022.7 - 0.4
23/11:00am 12.2 9.3 9.6 84 1.3 NNE 15 19 8 10 1022.9 - 0.4
23/10:30am 11.2 8.1 10.2 94 0.5 NNE 17 20 9 11 1023.2 - 0.4
23/10:20am 11.2 8.5 10.2 94 0.5 N 15 20 8 11 1023.5 - 0.4
23/10:00am 10.9 8.0 9.7 92 0.6 N 15 17 8 9 1023.7 - 0.0
23/09:51am 10.8 7.8 9.4 91 0.7 N 15 17 8 9 1023.7 - 0.0
23/09:30am 10.7 8.0 9.1 90 0.8 N 13 15 7 8 1023.4 - 0.0
23/09:00am 9.9 7.6 8.9 93 0.5 ENE 11 13 6 7 1023.0 1023.0 4.2
23/08:30am 9.0 6.1 8.0 93 0.5 ENE 13 17 7 9 1022.9 - 4.2
23/08:00am 8.6 6.1 8.0 96 0.3 ENE 11 13 6 7 1023.0 - 4.2
23/07:30am 8.2 5.9 7.6 96 0.3 N 9 11 5 6 1022.6 - 4.2
23/07:00am 7.9 5.6 7.3 96 0.3 N 9 13 5 7 1022.3 - 4.2
23/06:30am 7.8 5.4 7.2 96 0.3 NE 9 13 5 7 1021.7 - 4.2
23/06:00am 7.7 4.6 7.1 96 0.3 NNE 13 13 7 7 1021.6 1021.6 4.2
23/05:30am 8.1 6.2 7.7 97 0.2 NNE 7 9 4 5 1021.5 - 4.2
23/05:00am 8.6 6.4 8.0 96 0.3 NE 9 11 5 6 1021.3 - 4.2
23/04:30am 8.6 6.1 8.2 97 0.2 NE 11 13 6 7 1021.2 - 4.2
23/04:00am 9.1 7.1 8.7 97 0.2 NE 9 11 5 6 1021.3 - 4.2
23/03:30am 9.3 7.8 9.1 99 0.1 E 7 7 4 4 1021.6 - 4.2
23/03:00am 9.6 8.2 9.4 99 0.1 E 7 9 4 5 1021.7 1021.7 4.2
23/02:30am 9.6 7.7 9.2 97 0.2 ESE 9 11 5 6 1021.7 - 4.2
23/02:00am 9.4 8.5 9.2 99 0.1 W 4 7 2 4 1021.7 - 4.2
23/01:30am 9.9 9.4 9.5 97 0.2 W 2 6 1 3 1021.6 - 4.2
23/01:00am 9.9 8.5 9.5 97 0.2 W 7 9 4 5 1021.6 - 4.2
23/12:30am 9.5 9.4 9.3 99 0.1 CALM 0 0 0 0 1021.4 - 4.2
23/12:00am 9.7 8.2 9.3 97 0.2 WSW 7 11 4 6 1021.5 1021.5 4.2
 
Date/Time
WST
Tmp

°C
App
Tmp
°C
Dew
Point
°C
Rel
Hum
%
Delta-T

°C
Wind Press
QNH
hPa
Press
MSL
hPa
Rain
since
9 am
mm
Dir
 
Spd
km/h
Gust
km/h
Spd
kts
Gust
kts
22/11:30pm 9.7 8.2 9.1 96 0.3 SW 7 13 4 7 1021.5 - 4.2
22/11:00pm 10.1 8.7 9.5 96 0.3 W 7 11 4 6 1021.6 - 4.2
22/10:30pm 11.3 9.6 9.7 90 0.8 S 9 13 5 7 1021.5 - 4.2
22/10:00pm 11.5 9.9 10.1 91 0.7 S 9 13 5 7 1021.5 - 4.2

Latest Capital City Observations: Canberra | Sydney | Melbourne | Brisbane | Adelaide | Perth | Hobart | Darwin

Other Formats:

Comma delimited format used in spreadsheet applications
http://www.bom.gov.au/fwo/IDW60901/IDW60901.94610.axf

JavaScript Object Notation format (JSON) in row-major order
http://www.bom.gov.au/fwo/IDW60901/IDW60901.94610.json